TimeCST,TemperatureF,Dew PointF,Humidity,Sea Level PressureIn,VisibilityMPH,Wind Direction,Wind SpeedMPH,Gust SpeedMPH,PrecipitationIn,Events,Conditions,WindDirDegrees,DateUTC
12:53 AM,35.1,30.0,82,30.42,8.0,NW,19.6,-,0.06,Rain,Light Rain,320,2014-01-29 06:53:00
1:49 AM,35.6,30.2,81,30.39,10.0,NW,18.4,-,0.03,Rain,Light Rain,310,2014-01-29 07:49:00
1:53 AM,35.1,30.0,82,30.40,10.0,NW,17.3,-,0.03,Rain,Light Rain,310,2014-01-29 07:53:00
2:53 AM,35.1,30.9,85,30.39,7.0,NW,20.7,27.6,0.02,Rain,Light Rain,320,2014-01-29 08:53:00
3:53 AM,34.0,30.9,89,30.40,5.0,NW,20.7,-,0.10,Rain,Rain,320,2014-01-29 09:53:00
4:08 AM,33.8,30.2,87,30.40,6.0,NW,19.6,-,0.03,Rain,Rain,320,2014-01-29 10:08:00
4:53 AM,34.0,30.9,89,30.41,7.0,NW,18.4,-,0.07,Rain,Rain,320,2014-01-29 10:53:00
5:53 AM,34.0,30.0,85,30.44,6.0,NW,17.3,-,0.11,Rain,Rain,310,2014-01-29 11:53:00
6:53 AM,35.1,30.9,85,30.44,7.0,NW,15.0,-,0.05,Rain,Light Rain,310,2014-01-29 12:53:00
7:33 AM,35.6,30.2,81,30.43,9.0,NW,19.6,-,0.01,Rain,Light Rain,320,2014-01-29 13:33:00
7:53 AM,35.1,28.9,78,30.41,10.0,NNW,16.1,-,0.01,,Overcast,340,2014-01-29 13:53:00
8:45 AM,35.6,28.4,75,30.43,10.0,NNW,13.8,-,0.00,,Overcast,330,2014-01-29 14:45:00
8:53 AM,36.0,28.9,76,30.43,10.0,NNW,13.8,-,0.00,,Overcast,330,2014-01-29 14:53:00
9:24 AM,37.4,30.2,75,30.43,10.0,NW,15.0,-,N/A,,Overcast,320,2014-01-29 15:24:00
9:53 AM,37.0,30.0,76,30.45,10.0,NW,17.3,-,N/A,,Overcast,320,2014-01-29 15:53:00
10:53 AM,37.9,30.9,76,30.45,7.0,NW,20.7,25.3,0.00,Rain,Light Rain,320,2014-01-29 16:53:00
11:53 AM,39.9,32.0,73,30.43,10.0,NW,17.3,-,0.00,,Overcast,320,2014-01-29 17:53:00
12:53 PM,42.1,33.1,70,30.39,10.0,NNW,17.3,-,N/A,,Overcast,330,2014-01-29 18:53:00
1:53 PM,42.1,33.1,70,30.35,10.0,NNW,17.3,-,N/A,,Overcast,330,2014-01-29 19:53:00
2:29 PM,42.8,33.8,70,30.34,10.0,NNW,17.3,-,N/A,,Overcast,330,2014-01-29 20:29:00
2:53 PM,43.0,35.1,74,30.33,10.0,NNW,11.5,21.9,N/A,,Overcast,330,2014-01-29 20:53:00
3:53 PM,44.1,35.1,71,30.33,10.0,NNW,15.0,-,N/A,,Overcast,330,2014-01-29 21:53:00
4:53 PM,44.1,36.0,73,30.31,10.0,NNW,12.7,-,0.00,,Overcast,330,2014-01-29 22:53:00
5:53 PM,45.0,37.0,74,30.30,10.0,NW,13.8,-,N/A,,Overcast,320,2014-01-29 23:53:00
6:53 PM,45.0,39.0,80,30.31,10.0,NW,10.4,-,N/A,,Overcast,310,2014-01-30 00:53:00
7:53 PM,45.0,39.0,80,30.31,10.0,NW,11.5,-,N/A,,Overcast,310,2014-01-30 01:53:00
8:53 PM,46.0,39.0,76,30.31,10.0,WNW,11.5,-,N/A,,Overcast,300,2014-01-30 02:53:00
9:53 PM,46.0,39.9,79,30.29,10.0,NW,6.9,-,N/A,,Overcast,310,2014-01-30 03:53:00
10:53 PM,46.0,39.9,79,30.30,10.0,WNW,10.4,-,N/A,,Overcast,290,2014-01-30 04:53:00
11:53 PM,46.0,39.9,79,30.28,10.0,NW,8.1,-,N/A,,Overcast,310,2014-01-30 05:53:00